• In France
  • List of Countries
  • For 7 days
  • Water Temperature
  • Satellite Maps
  • Weather Map
  • Weather Widgets
  • user-avatar
    Login

    Hourly Weather Bondoukou

    Today, 13 December, Wednesday

    Time Temperature Precipitation Wind Pressure Humidity
    00:00 +26°C° 0 mm 1 mps 729 mmHg 49%
    01:00 +25°C° 0.1 mm 1 mps 728 mmHg 51%
    02:00 +25°C° 0.1 mm 1 mps 728 mmHg 54%
    03:00 +25°C° 0.1 mm 1 mps 728 mmHg 56%
    04:00 +24°C° 0.1 mm 1 mps 728 mmHg 58%
    05:00 +24°C° 0.1 mm 1 mps 728 mmHg 60%
    06:00 +24°C° 0 mm 1 mps 728 mmHg 62%
    07:00 +26°C° 0 mm 1 mps 729 mmHg 57%
    08:00 +28°C° 0 mm 1 mps 729 mmHg 53%
    09:00 +29°C° 0 mm 1 mps 729 mmHg 48%
    10:00 +32°C° 0 mm 1 mps 729 mmHg 42%
    11:00 +34°C° 0 mm 1 mps 729 mmHg 35%
    12:00 +37°C° 0 mm 1 mps 728 mmHg 29%
    13:00 +37°C° 0 mm 1 mps 728 mmHg 28%
    14:00 +37°C° 0 mm 1 mps 727 mmHg 27%
    15:00 +39°C° 0 mm 1 mps 726 mmHg 26%
    16:00 +36°C° 0 mm 1 mps 726 mmHg 30%
    17:00 +34°C° 0 mm 1 mps 726 mmHg 34%
    18:00 +33°C° 0 mm 1 mps 726 mmHg 38%
    19:00 +32°C° 0 mm 1 mps 727 mmHg 42%
    20:00 +31°C° 0 mm 1 mps 727 mmHg 46%
    21:00 +30°C° 0 mm 1 mps 728 mmHg 50%
    22:00 +29°C° 0 mm 1 mps 728 mmHg 53%
    23:00 +29°C° 0 mm 1 mps 728 mmHg 55%

    Tomorrow, 14 December, Thursday

    Time Temperature Precipitation Wind Pressure Humidity
    00:00 +28°C° 0 mm 1 mps 728 mmHg 57%
    01:00 +28°C° 0 mm 2 mps 728 mmHg 63%
    02:00 +27°C° 0 mm 2 mps 728 mmHg 70%
    03:00 +26°C° 0 mm 2 mps 727 mmHg 76%
    04:00 +26°C° 0 mm 2 mps 727 mmHg 80%
    05:00 +25°C° 0 mm 2 mps 728 mmHg 83%
    06:00 +25°C° 0 mm 2 mps 728 mmHg 87%
    07:00 +26°C° 0 mm 2 mps 728 mmHg 80%
    08:00 +28°C° 0 mm 2 mps 729 mmHg 72%
    09:00 +29°C° 0 mm 2 mps 729 mmHg 65%
    10:00 +32°C° 0 mm 1 mps 729 mmHg 56%
    11:00 +35°C° 0 mm 1 mps 729 mmHg 46%
    12:00 +37°C° 0 mm 1 mps 728 mmHg 37%
    13:00 +37°C° 0 mm 1 mps 728 mmHg 35%
    14:00 +39°C° 0 mm 1 mps 727 mmHg 32%
    15:00 +36°C° 0 mm 0 mps 726 mmHg 30%
    16:00 +36°C° 0 mm 1 mps 726 mmHg 33%
    17:00 +35°C° 0 mm 1 mps 726 mmHg 36%
    18:00 +34°C° 0 mm 1 mps 726 mmHg 40%
    19:00 +34°C° 0 mm 2 mps 727 mmHg 44%
    20:00 +32°C° 0 mm 2 mps 727 mmHg 48%
    21:00 +31°C° 0 mm 2 mps 728 mmHg 53%
    22:00 +30°C° 0 mm 2 mps 728 mmHg 58%
    23:00 +29°C° 0 mm 3 mps 728 mmHg 64%

    Day after tomorrow, 15 December, Friday

    Time Temperature Precipitation Wind Pressure Humidity
    00:00 +28°C° 0 mm 3 mps 728 mmHg 70%
    01:00 +27°C° 0 mm 3 mps 728 mmHg 74%
    02:00 +27°C° 0 mm 3 mps 727 mmHg 78%
    03:00 +26°C° 0 mm 3 mps 727 mmHg 82%
    04:00 +26°C° 0 mm 3 mps 727 mmHg 84%
    05:00 +25°C° 0 mm 2 mps 728 mmHg 86%
    06:00 +25°C° 0 mm 2 mps 728 mmHg 87%
    07:00 +26°C° 0 mm 3 mps 728 mmHg 82%
    08:00 +27°C° 0 mm 3 mps 729 mmHg 76%
    09:00 +28°C° 0 mm 3 mps 729 mmHg 71%
    10:00 +30°C° 0 mm 3 mps 729 mmHg 63%
    11:00 +33°C° 0 mm 3 mps 729 mmHg 56%
    12:00 +35°C° 0 mm 3 mps 728 mmHg 48%
    13:00 +35°C° 0.1 mm 2 mps 727 mmHg 46%
    14:00 +35°C° 0.1 mm 2 mps 727 mmHg 44%
    15:00 +36°C° 0.1 mm 2 mps 726 mmHg 42%
    16:00 +35°C° 0 mm 2 mps 726 mmHg 45%
    17:00 +34°C° 0 mm 2 mps 726 mmHg 47%
    18:00 +32°C° 0 mm 1 mps 726 mmHg 50%
    19:00 +31°C° 0 mm 2 mps 727 mmHg 53%
    20:00 +31°C° 0 mm 2 mps 727 mmHg 56%
    21:00 +30°C° 0 mm 2 mps 728 mmHg 59%
    22:00 +29°C° 0.3 mm 2 mps 728 mmHg 65%
    23:00 +28°C° 0.3 mm 2 mps 728 mmHg 70%

    16 December, Saturday

    Time Temperature Precipitation Wind Pressure Humidity
    00:00 +27°C° 0.3 mm 3 mps 728 mmHg 75%
    01:00 +27°C° 0 mm 3 mps 727 mmHg 78%
    02:00 +26°C° 0 mm 2 mps 727 mmHg 81%
    03:00 +26°C° 0 mm 2 mps 727 mmHg 84%
    04:00 +25°C° 0 mm 2 mps 727 mmHg 85%
    05:00 +25°C° 0 mm 2 mps 727 mmHg 86%
    06:00 +25°C° 0 mm 2 mps 728 mmHg 87%
    07:00 +26°C° 0 mm 2 mps 728 mmHg 82%
    08:00 +27°C° 0 mm 2 mps 729 mmHg 76%
    09:00 +28°C° 0 mm 2 mps 730 mmHg 70%
    10:00 +30°C° 0 mm 3 mps 729 mmHg 62%
    11:00 +33°C° 0 mm 3 mps 729 mmHg 54%
    12:00 +35°C° 0 mm 3 mps 728 mmHg 45%
    13:00 +36°C° 0 mm 2 mps 728 mmHg 42%
    14:00 +37°C° 0 mm 2 mps 727 mmHg 39%
    15:00 +36°C° 0 mm 1 mps 726 mmHg 35%
    16:00 +35°C° 0 mm 1 mps 726 mmHg 38%
    17:00 +34°C° 0 mm 1 mps 726 mmHg 41%
    18:00 +33°C° 0 mm 1 mps 726 mmHg 44%
    19:00 +32°C° 0.3 mm 1 mps 727 mmHg 50%
    20:00 +30°C° 0.3 mm 2 mps 727 mmHg 56%
    21:00 +29°C° 0.3 mm 2 mps 728 mmHg 62%
    22:00 +28°C° 0 mm 2 mps 728 mmHg 66%
    23:00 +28°C° 0 mm 2 mps 728 mmHg 71%

    17 December, Sunday

    Time Temperature Precipitation Wind Pressure Humidity
    00:00 +27°C° 0 mm 2 mps 728 mmHg 75%
    01:00 +26°C° 0 mm 2 mps 727 mmHg 78%
    02:00 +26°C° 0 mm 2 mps 727 mmHg 81%
    03:00 +25°C° 0 mm 2 mps 726 mmHg 85%
    04:00 +25°C° 0 mm 2 mps 727 mmHg 86%
    05:00 +25°C° 0 mm 2 mps 727 mmHg 88%
    06:00 +25°C° 0 mm 2 mps 727 mmHg 90%
    07:00 +26°C° 0 mm 2 mps 728 mmHg 84%
    08:00 +27°C° 0 mm 2 mps 728 mmHg 77%
    09:00 +29°C° 0 mm 3 mps 729 mmHg 71%
    10:00 +31°C° 0 mm 2 mps 728 mmHg 61%
    11:00 +34°C° 0 mm 2 mps 728 mmHg 52%
    12:00 +36°C° 0 mm 2 mps 728 mmHg 42%
    13:00 +37°C° 0 mm 2 mps 727 mmHg 39%
    14:00 +37°C° 0 mm 1 mps 726 mmHg 36%
    15:00 +37°C° 0 mm 1 mps 726 mmHg 32%
    16:00 +36°C° 0 mm 1 mps 726 mmHg 35%
    17:00 +35°C° 0 mm 1 mps 726 mmHg 38%
    18:00 +33°C° 0 mm 1 mps 726 mmHg 40%
    19:00 +33°C° 0 mm 1 mps 727 mmHg 44%
    20:00 +32°C° 0 mm 2 mps 727 mmHg 49%
    21:00 +31°C° 0 mm 2 mps 728 mmHg 53%
    22:00 +30°C° 0 mm 2 mps 727 mmHg 59%
    23:00 +29°C° 0 mm 2 mps 727 mmHg 65%

    18 December, Monday

    Time Temperature Precipitation Wind Pressure Humidity
    00:00 +28°C° 0 mm 2 mps 727 mmHg 71%
    01:00 +27°C° 0 mm 2 mps 727 mmHg 74%
    02:00 +27°C° 0 mm 2 mps 726 mmHg 78%
    03:00 +26°C° 0 mm 2 mps 726 mmHg 82%
    04:00 +26°C° 0 mm 2 mps 727 mmHg 84%
    05:00 +26°C° 0 mm 2 mps 727 mmHg 86%
    06:00 +25°C° 0 mm 2 mps 727 mmHg 88%
    07:00 +26°C° 0 mm 2 mps 728 mmHg 82%
    08:00 +28°C° 0 mm 3 mps 728 mmHg 75%
    09:00 +29°C° 0 mm 3 mps 729 mmHg 69%
    10:00 +31°C° 0 mm 3 mps 728 mmHg 61%
    11:00 +34°C° 0 mm 3 mps 728 mmHg 53%
    12:00 +36°C° 0 mm 2 mps 728 mmHg 44%
    13:00 +36°C° 0.2 mm 2 mps 727 mmHg 44%
    14:00 +36°C° 0.2 mm 2 mps 726 mmHg 44%
    15:00 +36°C° 0.2 mm 2 mps 725 mmHg 43%
    16:00 +35°C° 0.1 mm 2 mps 725 mmHg 46%
    17:00 +34°C° 0.1 mm 2 mps 726 mmHg 49%
    18:00 +32°C° 0.1 mm 2 mps 726 mmHg 52%
    19:00 +31°C° 0.2 mm 2 mps 726 mmHg 59%
    20:00 +30°C° 0.2 mm 2 mps 727 mmHg 65%
    21:00 +29°C° 0.2 mm 3 mps 727 mmHg 72%
    22:00 +28°C° 0 mm 3 mps 727 mmHg 74%
    23:00 +28°C° 0 mm 3 mps 727 mmHg 77%
    Show more